SCP
0 0 0 0 0 0 0 0 0 0 0 0 0 0 0 0 0 0 0 0 0 0 0 0 0 0 0 0 0 0 0 0 0 0 0 0 0 0
0 0 0 0 0 0 0 0 0 0 0 0 0 0 0 0 0 0 0 0 0 0 0 0 0 0 0 0 0 0 0 0 0 0 0 0 0 0
0 0 0 0 0 0 0 0 0 0 0 0 0 0 0 0 0 0 0 0 0 0 0 0 0 0 0 0 0 0 0 0 0 0 0 0 0 0
0 0 0 0 0 0 0 0 0 0 0 0 0 0 0 0 0 0 0 0 0 0 0 0 0 0 0 0 0 0 0 0 0 0 0 0 0 0
0 0 0 0 0 0 0 0 0 0 0 0 0 0 0 0 0 0 0 0 0 0 0 0 0 0 0 0 0 0 0 0 0 0 0 0 0 0
0 0 0 0 0 0 0 0 0 0 0 0 0 0 0 0 0 0 0 0 0 0 0 0 0 0 0 0 0 0 0 0 0 0 0 0 0 0
0 -0 -0 -0 -0 -0 0 0 0 0 0 0 0 0 0 0 0 0 0 0 0 0 0 0 0 0 0 0 0 0 0 0 0 0 0 0 0 0
-0 -0 -0 -0 -0 -0 -0 -0 0 0 0 0 0 0 0 0 0 0 0 0 0 0 0 0 0 0 0 0 0 0 0 0 0 0 0 0 0 0
-0 -0 -0 -0 -0 -0 -0 -0 -0 -0 0 0 0 0 0 0 0 0 0 0 0 0 0 0 0 0 0 0 0 0 0 0 0 0 0 0 0 0
-0 -0 -0 -0 -0 -0 -0 -0 0 0 0 0 0 0 0 0 0 0 0 0 0 0 0 0 0 0 0 0 0 0 0 0 0 0 0 0 0 0
0 -0 -0 -0 -0 -0 0 0 0 0 0 0 0 0 0 0 0 0 0 0 0 0 0 0 0 0 0 0 0 0 0 0 0 0 0 0 0 0
-0 0 -0 -0 -0 -0 0 0 0 0 0 0 0 0 0 0 0 0 0 0 0 0 0 0 0 0 0 0 0 0 0 0 0 0 0 0 0 0
0 0 0 -0 -0 -0 -0 0 0 0 0 0 0 0 0 0 0 0 0 0 0 0 0 0 0 0 0 0 0 0 0 0 0 0 0 0 0 0
0 0 0 -0 -0 -0 0 0 0 0 0 0 0 0 0 0 0 0 0 0 0 0 0 0 0 0 0 0 0 0 0 0 0 0 0 0 0 0
0 -0 -0 -0 -0 -0 0 0 0 0 0 0 0 0 0 0 0 0 0 -0 0 0 0 0 0 0 0 0 0 0 0 0 0 0 0 0 0 0
-0 -0 -0 -0 -0 -0 0 0 0 0 0 0 0 0 0 0 0 0 0 0 0 0 0 0 0 0 0 0 0 0 0 0 0 0 0 0 0 -0
-0 0 0 0 0 0 0 0 0 0 0 0 0 0 0 0 0 0 0 0 0 0 0 0 0 0 0 0 0 0 0 0 0 0 0 0 0 -0
0 0 -0 0 0 0 0 0 0 0 0 0 0 0 0 0 0 0 0 0 0 0 0 0 0 -0 0 0 0 0 0 0 0 0 0 0 0 -0
0 0 -0 0 0 0 0 0 0 0 0 0 0 0 0 0 0 0 0 0 0 0 0 0 0 0 0 0 0 0 0 0 0 0 0 0 0 0
0 -0 -0 0 0 0 0 0 0 0 0 0 0 0 0 0 0 0 0 0 0 0 0 0 0 0 0 0 0 0 0 0 0 0 0 0 0 0
0 -0 -0 0 0 0 0 0 0 0 0 0 0 0 0 0 0 0 0 0 0 0 0 0 0 0 0 0 0 0 0 0 0 0 0 0 0 0
-0 -0 -0 0 0 0 0 0 0 0 0 0 0 0 0 0 0 0 0 0 0 0 0 0 0 0 0 0 0 0 0 0 0 0 0 0 0 0
-0 -0 -0 0 0 0 0 0 0 0 0 0 0 0 0 0 0 0 0 0 0 0 0 0 0 0 0 0 0 0 0 0 0 0 0 0 0 0
Wind_Speed_500mb
14 13 9 10 7 5 6 5 4 1 4 5 6 11 10 11 11 11 17 29 37 38 33 25 19 17 15 15 23 20 14 15 15 13 12 12 18 18
15 12 12 6 5 4 4 3 2 6 5 5 3 2 3 4 8 1 10 13 5 8 12 18 20 15 22 29 27 19 15 12 12 15 19 15 9 14
17 18 16 12 7 7 2 2 2 2 2 5 9 11 10 5 2 2 4 8 12 15 17 16 18 22 23 25 20 18 16 12 13 16 17 17 11 15
21 22 17 12 5 3 3 6 4 6 5 9 15 9 5 2 4 6 8 8 9 9 9 8 8 12 13 16 15 12 6 11 13 13 13 16 20 27
23 23 15 9 6 4 7 6 9 8 7 10 14 9 4 3 6 8 7 7 10 11 14 14 15 15 15 16 14 10 7 15 19 23 21 26 27 29
19 20 13 9 7 6 8 9 3 5 14 13 10 10 7 8 8 11 11 9 8 14 17 13 16 16 15 13 7 7 12 10 6 11 16 26 31 27
24 22 11 8 7 7 2 11 13 17 15 12 13 12 10 6 6 8 6 11 14 12 11 20 11 11 9 9 13 8 9 13 17 16 29 30 24 28
24 16 11 6 6 20 25 26 21 12 14 14 15 10 10 11 9 5 4 5 5 20 9 13 16 13 14 11 5 8 11 12 18 25 28 29 31 33
18 16 24 29 26 24 21 14 17 14 12 12 10 11 9 10 9 10 11 8 9 16 10 9 22 13 15 15 13 15 22 22 23 26 31 35 33 31
36 37 35 33 26 20 16 16 18 16 14 11 11 14 14 15 17 18 19 21 16 23 25 8 19 15 16 21 23 24 19 25 27 30 31 29 28 25
42 33 30 30 24 17 15 18 21 24 23 22 23 24 22 20 19 15 19 11 9 17 30 14 23 24 7 9 20 21 25 29 31 27 22 16 14 11
41 36 28 28 24 17 16 19 25 29 26 27 27 26 26 26 24 23 19 16 16 3 26 15 25 26 8 13 20 25 20 25 26 25 26 26 20 11
42 38 32 25 21 19 20 24 30 31 30 28 28 27 25 25 26 27 26 25 19 13 27 22 17 18 15 23 23 20 23 23 19 21 21 22 27 19
40 37 33 26 26 26 30 32 34 30 27 25 24 24 25 28 29 30 30 31 33 27 26 25 19 18 19 21 22 22 22 26 21 25 22 21 19 17
38 36 35 32 31 33 34 32 30 26 24 24 25 26 27 25 23 27 32 28 26 31 30 30 25 21 17 17 21 25 27 20 31 27 18 17 18 17
39 40 37 36 34 35 31 28 25 23 25 26 26 24 23 23 25 26 24 24 22 24 30 30 25 23 22 23 23 25 27 23 30 27 21 20 17 18
42 44 42 37 35 33 30 26 24 25 26 25 23 22 21 22 26 27 26 22 25 27 31 33 24 13 13 27 30 26 25 24 26 30 19 20 17 16
44 43 41 36 33 30 26 25 24 25 25 25 23 22 24 24 24 25 23 25 25 29 29 35 33 26 21 26 37 45 23 22 27 29 21 20 19 20
40 40 39 35 32 29 24 24 24 25 25 24 23 23 23 24 23 24 23 24 25 26 28 28 29 35 35 30 30 43 38 21 22 20 26 19 19 15
38 38 37 34 31 27 25 24 24 24 24 24 24 25 26 25 24 26 28 27 26 25 23 28 35 33 32 30 28 32 40 44 29 20 16 18 18 21
39 38 35 32 30 25 24 23 23 24 24 25 26 26 26 25 25 25 25 26 26 27 27 30 33 25 27 23 25 30 33 35 39 42 30 17 19 20
38 36 34 31 27 24 23 23 22 23 23 24 25 25 26 26 26 25 26 26 25 26 24 24 27 26 27 28 26 27 28 30 31 32 40 38 33 31
37 35 33 30 25 23 22 21 21 21 22 23 23 24 24 25 25 25 26 25 27 24 26 26 24 25 28 29 25 29 26 30 28 25 27 31 30 30
Wind_Direction_500mb
211 193 195 205 212 220 234 207 172 208 211 264 293 315 315 301 274 256 237 236 240 239 228 234 269 290 259 260 280 301 294 314 313 310 318 323 325 326
182 169 171 178 167 208 128 172 311 232 214 259 254 319 45 57 89 128 166 142 141 223 249 266 301 274 266 246 262 272 272 275 283 305 311 309 322 317
159 167 151 153 162 172 220 315 247 350 265 189 168 148 136 132 110 345 304 293 284 277 277 284 279 270 252 234 253 285 292 281 275 295 307 298 314 310
166 145 137 126 149 178 210 262 287 280 301 216 175 161 177 102 330 338 332 314 302 318 326 311 287 276 284 283 288 297 275 233 261 282 300 298 307 312
158 153 132 142 173 225 250 254 306 299 301 182 164 172 169 91 11 349 328 315 321 330 330 323 317 318 322 318 318 320 289 270 274 281 294 296 301 309
164 159 148 182 227 243 232 265 260 137 130 140 152 135 92 54 28 17 353 336 5 6 345 349 355 342 344 333 297 277 274 263 260 275 301 316 310 305
162 157 183 216 245 245 243 138 123 131 129 129 111 84 55 50 56 46 25 344 349 358 16 337 17 346 346 339 345 331 293 284 281 279 288 291 304 319
162 162 187 180 162 139 132 123 118 125 135 133 120 100 74 60 30 45 86 95 311 327 57 324 11 351 341 348 323 294 271 242 263 275 280 284 287 295
156 141 130 116 124 131 130 133 127 138 142 139 118 98 79 76 71 42 38 46 28 6 56 2 348 15 355 314 329 302 287 292 298 303 304 299 295 291
125 122 127 125 126 133 147 148 134 125 108 92 80 80 70 72 60 51 47 42 20 346 28 70 347 5 343 303 325 338 329 309 301 298 299 302 304 301
130 134 134 131 126 124 123 114 107 97 89 83 82 80 76 68 68 80 74 61 36 319 349 42 331 336 13 356 10 353 357 347 345 352 342 326 317 312
139 136 134 125 122 118 110 105 107 99 95 90 83 73 64 59 53 50 49 56 39 339 344 37 358 10 4 350 355 344 350 336 342 353 356 356 350 297
138 135 128 126 123 115 113 110 105 99 87 78 73 68 63 58 53 46 44 45 54 27 4 30 10 17 358 340 7 353 347 351 350 353 351 347 352 359
141 137 130 125 117 117 114 106 96 91 86 83 80 72 61 50 42 37 37 39 34 33 20 22 21 13 3 6 2 359 2 354 360 352 352 356 352 343
141 136 124 124 124 119 108 100 95 92 92 89 79 67 58 51 44 39 36 44 17 18 17 26 30 28 25 18 10 5 0 2 358 358 2 10 352 12
138 129 131 128 121 112 105 99 95 97 95 85 74 63 55 50 44 52 42 36 37 22 18 23 24 32 43 21 14 6 8 7 358 10 10 19 26 21
134 133 129 124 118 112 108 102 99 96 87 81 72 62 55 45 42 44 47 39 33 31 17 24 40 17 4 35 22 11 7 8 12 17 21 12 39 20
139 133 127 125 121 119 112 104 98 94 87 81 73 64 56 57 47 41 40 38 38 28 25 29 25 66 22 21 15 18 18 13 14 22 38 31 31 15
139 134 133 132 128 125 115 105 100 95 88 81 72 65 60 54 52 43 43 42 41 36 23 22 35 43 43 27 12 15 27 14 18 24 17 40 27 16
140 137 137 137 133 128 118 110 103 97 89 82 74 67 61 55 52 47 43 44 40 42 27 17 35 41 21 10 13 7 21 28 33 19 15 31 19 21
143 143 142 139 134 131 120 111 103 98 91 83 74 67 61 55 51 48 43 32 31 31 27 17 24 18 14 32 27 20 13 17 27 33 32 36 24 17
148 147 143 140 135 131 120 109 104 99 92 82 75 68 63 56 51 47 43 38 36 24 29 22 14 19 17 22 22 17 23 20 14 26 32 37 36 30
151 150 145 139 137 134 122 111 104 100 95 86 78 71 66 60 53 49 43 40 26 34 32 30 30 26 25 27 24 23 30 28 27 25 14 26 34 39
Wind_Speed_850mb
14 13 9 10 7 5 6 5 4 1 4 5 6 11 10 11 11 11 17 29 37 38 33 25 19 17 15 15 23 20 14 15 15 13 12 12 18 18
15 12 12 6 5 4 4 3 2 6 5 5 3 2 3 4 8 1 10 13 5 8 12 18 20 15 22 29 27 19 15 12 12 15 19 15 9 14
17 18 16 12 7 7 2 2 2 2 2 5 9 11 10 5 2 2 4 8 12 15 17 16 18 22 23 25 20 18 16 12 13 16 17 17 11 15
21 22 17 12 5 3 3 6 4 6 5 9 15 9 5 2 4 6 8 8 9 9 9 8 8 12 13 16 15 12 6 11 13 13 13 16 20 27
23 23 15 9 6 4 7 6 9 8 7 10 14 9 4 3 6 8 7 7 10 11 14 14 15 15 15 16 14 10 7 15 19 23 21 26 27 29
19 20 13 9 7 6 8 9 3 5 14 13 10 10 7 8 8 11 11 9 8 14 17 13 16 16 15 13 7 7 12 10 6 11 16 26 31 27
24 22 11 8 7 7 2 11 13 17 15 12 13 12 10 6 6 8 6 11 14 12 11 20 11 11 9 9 13 8 9 13 17 16 29 30 24 28
24 16 11 6 6 20 25 26 21 12 14 14 15 10 10 11 9 5 4 5 5 20 9 13 16 13 14 11 5 8 11 12 18 25 28 29 31 33
18 16 24 29 26 24 21 14 17 14 12 12 10 11 9 10 9 10 11 8 9 16 10 9 22 13 15 15 13 15 22 22 23 26 31 35 33 31
36 37 35 33 26 20 16 16 18 16 14 11 11 14 14 15 17 18 19 21 16 23 25 8 19 15 16 21 23 24 19 25 27 30 31 29 28 25
42 33 30 30 24 17 15 18 21 24 23 22 23 24 22 20 19 15 19 11 9 17 30 14 23 24 7 9 20 21 25 29 31 27 22 16 14 11
41 36 28 28 24 17 16 19 25 29 26 27 27 26 26 26 24 23 19 16 16 3 26 15 25 26 8 13 20 25 20 25 26 25 26 26 20 11
42 38 32 25 21 19 20 24 30 31 30 28 28 27 25 25 26 27 26 25 19 13 27 22 17 18 15 23 23 20 23 23 19 21 21 22 27 19
40 37 33 26 26 26 30 32 34 30 27 25 24 24 25 28 29 30 30 31 33 27 26 25 19 18 19 21 22 22 22 26 21 25 22 21 19 17
38 36 35 32 31 33 34 32 30 26 24 24 25 26 27 25 23 27 32 28 26 31 30 30 25 21 17 17 21 25 27 20 31 27 18 17 18 17
39 40 37 36 34 35 31 28 25 23 25 26 26 24 23 23 25 26 24 24 22 24 30 30 25 23 22 23 23 25 27 23 30 27 21 20 17 18
42 44 42 37 35 33 30 26 24 25 26 25 23 22 21 22 26 27 26 22 25 27 31 33 24 13 13 27 30 26 25 24 26 30 19 20 17 16
44 43 41 36 33 30 26 25 24 25 25 25 23 22 24 24 24 25 23 25 25 29 29 35 33 26 21 26 37 45 23 22 27 29 21 20 19 20
40 40 39 35 32 29 24 24 24 25 25 24 23 23 23 24 23 24 23 24 25 26 28 28 29 35 35 30 30 43 38 21 22 20 26 19 19 15
38 38 37 34 31 27 25 24 24 24 24 24 24 25 26 25 24 26 28 27 26 25 23 28 35 33 32 30 28 32 40 44 29 20 16 18 18 21
39 38 35 32 30 25 24 23 23 24 24 25 26 26 26 25 25 25 25 26 26 27 27 30 33 25 27 23 25 30 33 35 39 42 30 17 19 20
38 36 34 31 27 24 23 23 22 23 23 24 25 25 26 26 26 25 26 26 25 26 24 24 27 26 27 28 26 27 28 30 31 32 40 38 33 31
37 35 33 30 25 23 22 21 21 21 22 23 23 24 24 25 25 25 26 25 27 24 26 26 24 25 28 29 25 29 26 30 28 25 27 31 30 30
Wind_Direction_850mb
211 193 195 205 212 220 234 207 172 208 211 264 293 315 315 301 274 256 237 236 240 239 228 234 269 290 259 260 280 301 294 314 313 310 318 323 325 326
182 169 171 178 167 208 128 172 311 232 214 259 254 319 45 57 89 128 166 142 141 223 249 266 301 274 266 246 262 272 272 275 283 305 311 309 322 317
159 167 151 153 162 172 220 315 247 350 265 189 168 148 136 132 110 345 304 293 284 277 277 284 279 270 252 234 253 285 292 281 275 295 307 298 314 310
166 145 137 126 149 178 210 262 287 280 301 216 175 161 177 102 330 338 332 314 302 318 326 311 287 276 284 283 288 297 275 233 261 282 300 298 307 312
158 153 132 142 173 225 250 254 306 299 301 182 164 172 169 91 11 349 328 315 321 330 330 323 317 318 322 318 318 320 289 270 274 281 294 296 301 309
164 159 148 182 227 243 232 265 260 137 130 140 152 135 92 54 28 17 353 336 5 6 345 349 355 342 344 333 297 277 274 263 260 275 301 316 310 305
162 157 183 216 245 245 243 138 123 131 129 129 111 84 55 50 56 46 25 344 349 358 16 337 17 346 346 339 345 331 293 284 281 279 288 291 304 319
162 162 187 180 162 139 132 123 118 125 135 133 120 100 74 60 30 45 86 95 311 327 57 324 11 351 341 348 323 294 271 242 263 275 280 284 287 295
156 141 130 116 124 131 130 133 127 138 142 139 118 98 79 76 71 42 38 46 28 6 56 2 348 15 355 314 329 302 287 292 298 303 304 299 295 291
125 122 127 125 126 133 147 148 134 125 108 92 80 80 70 72 60 51 47 42 20 346 28 70 347 5 343 303 325 338 329 309 301 298 299 302 304 301
130 134 134 131 126 124 123 114 107 97 89 83 82 80 76 68 68 80 74 61 36 319 349 42 331 336 13 356 10 353 357 347 345 352 342 326 317 312
139 136 134 125 122 118 110 105 107 99 95 90 83 73 64 59 53 50 49 56 39 339 344 37 358 10 4 350 355 344 350 336 342 353 356 356 350 297
138 135 128 126 123 115 113 110 105 99 87 78 73 68 63 58 53 46 44 45 54 27 4 30 10 17 358 340 7 353 347 351 350 353 351 347 352 359
141 137 130 125 117 117 114 106 96 91 86 83 80 72 61 50 42 37 37 39 34 33 20 22 21 13 3 6 2 359 2 354 360 352 352 356 352 343
141 136 124 124 124 119 108 100 95 92 92 89 79 67 58 51 44 39 36 44 17 18 17 26 30 28 25 18 10 5 0 2 358 358 2 10 352 12
138 129 131 128 121 112 105 99 95 97 95 85 74 63 55 50 44 52 42 36 37 22 18 23 24 32 43 21 14 6 8 7 358 10 10 19 26 21
134 133 129 124 118 112 108 102 99 96 87 81 72 62 55 45 42 44 47 39 33 31 17 24 40 17 4 35 22 11 7 8 12 17 21 12 39 20
139 133 127 125 121 119 112 104 98 94 87 81 73 64 56 57 47 41 40 38 38 28 25 29 25 66 22 21 15 18 18 13 14 22 38 31 31 15
139 134 133 132 128 125 115 105 100 95 88 81 72 65 60 54 52 43 43 42 41 36 23 22 35 43 43 27 12 15 27 14 18 24 17 40 27 16
140 137 137 137 133 128 118 110 103 97 89 82 74 67 61 55 52 47 43 44 40 42 27 17 35 41 21 10 13 7 21 28 33 19 15 31 19 21
143 143 142 139 134 131 120 111 103 98 91 83 74 67 61 55 51 48 43 32 31 31 27 17 24 18 14 32 27 20 13 17 27 33 32 36 24 17
148 147 143 140 135 131 120 109 104 99 92 82 75 68 63 56 51 47 43 38 36 24 29 22 14 19 17 22 22 17 23 20 14 26 32 37 36 30
151 150 145 139 137 134 122 111 104 100 95 86 78 71 66 60 53 49 43 40 26 34 32 30 30 26 25 27 24 23 30 28 27 25 14 26 34 39